Time,TemperatureF,DewpointF,PressureIn,WindDirection,WindDirectionDegrees,WindSpeedMPH,WindSpeedGustMPH,Humidity,HourlyPrecipIn,Conditions,Clouds,dailyrainin,SolarRadiationWatts/m^2,SoftwareType,DateUTC
2013-09-11 00:02:00,63.0,62.0,-100.00,WSW,251,4.0,9.0,96,0.00,,,0.01,0.000000,,2013-09-11 05:02:00,
2013-09-11 00:23:00,63.0,62.0,-100.00,WSW,251,4.0,9.0,96,0.00,,,0.01,0.000000,,2013-09-11 05:23:00,
2013-09-11 00:34:00,63.0,62.0,-100.00,WSW,251,4.0,9.0,96,0.00,,,0.01,0.000000,,2013-09-11 05:34:00,
2013-09-11 00:43:00,63.0,62.0,-100.00,WSW,251,4.0,9.0,96,0.00,,,0.01,0.000000,,2013-09-11 05:43:00,
2013-09-11 00:53:00,63.0,62.0,-100.00,WSW,251,4.0,9.0,96,0.00,,,0.01,0.000000,,2013-09-11 05:53:00,
2013-09-11 01:22:00,63.0,62.0,-100.00,WSW,255,4.0,9.0,95,0.00,,,0.01,0.000000,,2013-09-11 06:22:00,
2013-09-11 01:33:00,63.0,62.0,-100.00,WSW,255,4.0,9.0,95,0.00,,,0.01,0.000000,,2013-09-11 06:33:00,
2013-09-11 01:42:00,63.0,62.0,-100.00,WSW,255,4.0,9.0,95,0.00,,,0.01,0.000000,,2013-09-11 06:42:00,
2013-09-11 01:52:00,63.0,62.0,-100.00,WSW,255,4.0,9.0,95,0.00,,,0.01,0.000000,,2013-09-11 06:52:00,
2013-09-11 02:01:00,63.0,62.0,-100.00,WSW,255,4.0,9.0,95,0.00,,,0.01,0.000000,,2013-09-11 07:01:00,
2013-09-11 02:02:00,61.0,60.0,-100.00,WSW,247,3.0,6.0,98,0.00,,,-99.99,0.000000,,2013-09-11 07:02:00,
2013-09-11 02:24:00,61.0,60.0,-100.00,WSW,247,3.0,6.0,98,0.00,,,-99.99,0.000000,,2013-09-11 07:24:00,
2013-09-11 02:32:00,61.0,60.0,-100.00,WSW,247,3.0,6.0,98,0.00,,,-99.99,0.000000,,2013-09-11 07:32:00,
2013-09-11 02:42:00,61.0,60.0,-100.00,WSW,247,3.0,6.0,98,0.00,,,-99.99,0.000000,,2013-09-11 07:42:00,
2013-09-11 02:52:00,61.0,60.0,-100.00,WSW,247,3.0,6.0,98,0.00,,,-99.99,0.000000,,2013-09-11 07:52:00,
2013-09-11 03:02:00,61.0,61.0,-100.00,West,263,3.0,6.0,99,0.00,,,0.01,0.000000,,2013-09-11 08:02:00,
2013-09-11 03:22:00,61.0,61.0,-100.00,West,263,3.0,6.0,99,0.00,,,0.01,0.000000,,2013-09-11 08:22:00,
2013-09-11 03:32:00,61.0,61.0,-100.00,West,263,3.0,6.0,99,0.00,,,0.01,0.000000,,2013-09-11 08:32:00,
2013-09-11 03:42:00,61.0,61.0,-100.00,West,263,3.0,6.0,99,0.00,,,0.01,0.000000,,2013-09-11 08:42:00,
2013-09-11 03:52:00,61.0,61.0,-100.00,West,263,3.0,6.0,99,0.00,,,0.01,0.000000,,2013-09-11 08:52:00,
2013-09-11 04:02:00,61.0,61.0,-100.00,West,275,3.0,8.0,100,0.00,,,0.01,0.000000,,2013-09-11 09:02:00,
2013-09-11 04:22:00,61.0,61.0,-100.00,West,275,3.0,8.0,100,0.00,,,0.01,0.000000,,2013-09-11 09:22:00,
2013-09-11 04:33:00,61.0,61.0,-100.00,West,275,3.0,8.0,100,0.00,,,0.01,0.000000,,2013-09-11 09:33:00,
2013-09-11 04:43:00,61.0,61.0,-100.00,West,275,3.0,8.0,100,0.00,,,0.01,0.000000,,2013-09-11 09:43:00,
2013-09-11 04:53:00,61.0,61.0,-100.00,West,275,3.0,8.0,100,0.00,,,0.01,0.000000,,2013-09-11 09:53:00,
2013-09-11 05:02:00,62.0,62.0,-100.00,West,273,2.0,7.0,100,0.01,,,0.02,0.000000,,2013-09-11 10:02:00,
2013-09-11 05:23:00,62.0,62.0,-100.00,West,273,2.0,7.0,100,0.01,,,0.02,0.000000,,2013-09-11 10:23:00,
2013-09-11 05:33:00,62.0,62.0,-100.00,West,273,2.0,7.0,100,0.01,,,0.02,0.000000,,2013-09-11 10:33:00,
2013-09-11 05:43:00,62.0,62.0,-100.00,West,273,2.0,7.0,100,0.01,,,0.02,0.000000,,2013-09-11 10:43:00,
2013-09-11 05:53:00,62.0,62.0,-100.00,West,273,2.0,7.0,100,0.01,,,0.02,0.000000,,2013-09-11 10:53:00,
2013-09-11 06:22:00,61.0,61.0,-100.00,WNW,288,4.0,8.0,100,0.00,,,-99.99,0.000000,,2013-09-11 11:22:00,
2013-09-11 06:33:00,61.0,61.0,-100.00,WNW,288,4.0,8.0,100,0.00,,,-99.99,0.000000,,2013-09-11 11:33:00,
2013-09-11 06:42:00,61.0,61.0,-100.00,WNW,288,4.0,8.0,100,0.00,,,-99.99,0.000000,,2013-09-11 11:42:00,
2013-09-11 06:52:00,61.0,61.0,-100.00,WNW,288,4.0,8.0,100,0.00,,,-99.99,0.000000,,2013-09-11 11:52:00,
2013-09-11 07:01:00,61.0,61.0,-100.00,WNW,288,4.0,8.0,100,0.00,,,-99.99,0.000000,,2013-09-11 12:01:00,
2013-09-11 07:02:00,61.0,61.0,-100.00,West,271,4.0,8.0,99,0.00,,,-99.99,4.000000,,2013-09-11 12:02:00,
2013-09-11 07:42:00,61.0,61.0,-100.00,West,271,4.0,8.0,99,0.00,,,-99.99,4.000000,,2013-09-11 12:42:00,
2013-09-11 07:52:00,61.0,61.0,-100.00,West,271,4.0,8.0,99,0.00,,,-99.99,4.000000,,2013-09-11 12:52:00,
2013-09-11 08:02:00,61.0,60.0,-100.00,WSW,245,3.0,7.0,98,0.00,,,-99.99,37.000000,,2013-09-11 13:02:00,
2013-09-11 08:42:00,61.0,60.0,-100.00,WSW,245,3.0,7.0,98,0.00,,,-99.99,37.000000,,2013-09-11 13:42:00,
2013-09-11 08:52:00,61.0,60.0,-100.00,WSW,245,3.0,7.0,98,0.00,,,-99.99,37.000000,,2013-09-11 13:52:00,
2013-09-11 09:02:00,66.0,62.0,-100.00,WSW,249,4.0,8.0,86,0.00,,,0.01,307.000000,,2013-09-11 14:02:00,
2013-09-11 09:22:00,66.0,62.0,-100.00,WSW,249,4.0,8.0,86,0.00,,,0.01,307.000000,,2013-09-11 14:22:00,
2013-09-11 09:32:00,66.0,62.0,-100.00,WSW,249,4.0,8.0,86,0.00,,,0.01,307.000000,,2013-09-11 14:32:00,
2013-09-11 09:42:00,66.0,62.0,-100.00,WSW,249,4.0,8.0,86,0.00,,,0.01,307.000000,,2013-09-11 14:42:00,
2013-09-11 09:52:00,66.0,62.0,-100.00,WSW,249,4.0,8.0,86,0.00,,,0.01,307.000000,,2013-09-11 14:52:00,
2013-09-11 10:02:00,70.0,61.0,-100.00,WSW,253,6.0,10.0,72,0.00,,,0.01,526.000000,,2013-09-11 15:02:00,
2013-09-11 10:43:00,70.0,61.0,-100.00,WSW,253,6.0,10.0,72,0.00,,,0.01,526.000000,,2013-09-11 15:43:00,
2013-09-11 10:54:00,70.0,61.0,-100.00,WSW,253,6.0,10.0,72,0.00,,,0.01,526.000000,,2013-09-11 15:54:00,
2013-09-11 11:02:00,73.0,60.0,-100.00,WSW,250,6.0,12.0,64,0.00,,,0.01,650.000000,,2013-09-11 16:02:00,
2013-09-11 11:23:00,73.0,60.0,-100.00,WSW,250,6.0,12.0,64,0.00,,,0.01,650.000000,,2013-09-11 16:23:00,
2013-09-11 11:33:00,73.0,60.0,-100.00,WSW,250,6.0,12.0,64,0.00,,,0.01,650.000000,,2013-09-11 16:33:00,
2013-09-11 11:43:00,73.0,60.0,-100.00,WSW,250,6.0,12.0,64,0.00,,,0.01,650.000000,,2013-09-11 16:43:00,
2013-09-11 11:53:00,73.0,60.0,-100.00,WSW,250,6.0,12.0,64,0.00,,,0.01,650.000000,,2013-09-11 16:53:00,
2013-09-11 12:02:00,76.0,62.0,-100.00,WSW,244,7.0,14.0,61,0.00,,,0.01,752.000000,,2013-09-11 17:02:00,
2013-09-11 12:43:00,76.0,62.0,-100.00,WSW,244,7.0,14.0,61,0.00,,,0.01,752.000000,,2013-09-11 17:43:00,
2013-09-11 12:52:00,76.0,62.0,-100.00,WSW,244,7.0,14.0,61,0.00,,,0.01,752.000000,,2013-09-11 17:52:00,
2013-09-11 13:42:00,76.0,62.0,-100.00,West,259,7.0,14.0,63,0.00,,,0.01,666.000000,,2013-09-11 18:42:00,
2013-09-11 13:52:00,76.0,62.0,-100.00,West,259,7.0,14.0,63,0.00,,,0.01,666.000000,,2013-09-11 18:52:00,
2013-09-11 14:01:00,76.0,62.0,-100.00,West,259,7.0,14.0,63,0.00,,,0.01,666.000000,,2013-09-11 19:01:00,
2013-09-11 14:02:00,77.0,60.0,-100.00,West,271,8.0,19.0,56,0.00,,,0.01,615.000000,,2013-09-11 19:02:00,
2013-09-11 14:22:00,77.0,60.0,-100.00,West,271,8.0,19.0,56,0.00,,,0.01,615.000000,,2013-09-11 19:22:00,
2013-09-11 14:32:00,77.0,60.0,-100.00,West,271,8.0,19.0,56,0.00,,,0.01,615.000000,,2013-09-11 19:32:00,
2013-09-11 14:42:00,77.0,60.0,-100.00,West,271,8.0,19.0,56,0.00,,,0.01,615.000000,,2013-09-11 19:42:00,
2013-09-11 14:53:00,77.0,60.0,-100.00,West,271,8.0,19.0,56,0.00,,,0.01,615.000000,,2013-09-11 19:53:00,
2013-09-11 15:02:00,76.0,59.0,-100.00,West,280,8.0,19.0,55,0.00,,,0.01,483.000000,,2013-09-11 20:02:00,
2013-09-11 15:22:00,76.0,59.0,-100.00,West,280,8.0,19.0,55,0.00,,,0.01,483.000000,,2013-09-11 20:22:00,
2013-09-11 15:32:00,76.0,59.0,-100.00,West,280,8.0,19.0,55,0.00,,,0.01,483.000000,,2013-09-11 20:32:00,
2013-09-11 15:42:00,76.0,59.0,-100.00,West,280,8.0,19.0,55,0.00,,,0.01,483.000000,,2013-09-11 20:42:00,
2013-09-11 15:52:00,76.0,59.0,-100.00,West,280,8.0,19.0,55,0.00,,,0.01,483.000000,,2013-09-11 20:52:00,
2013-09-11 16:02:00,73.0,59.0,-100.00,WNW,300,7.0,15.0,61,0.00,,,0.01,357.000000,,2013-09-11 21:02:00,
2013-09-11 16:44:00,73.0,59.0,-100.00,WNW,300,7.0,15.0,61,0.00,,,0.01,357.000000,,2013-09-11 21:44:00,
2013-09-11 16:54:00,73.0,59.0,-100.00,WNW,300,7.0,15.0,61,0.00,,,0.01,357.000000,,2013-09-11 21:54:00,
2013-09-11 17:02:00,72.0,56.0,-100.00,NW,326,6.0,20.0,57,0.00,,,0.01,297.000000,,2013-09-11 22:02:00,
2013-09-11 17:43:00,72.0,56.0,-100.00,NW,326,6.0,20.0,57,0.00,,,0.01,297.000000,,2013-09-11 22:43:00,
2013-09-11 17:54:00,72.0,56.0,-100.00,NW,326,6.0,20.0,57,0.00,,,0.01,297.000000,,2013-09-11 22:54:00,
2013-09-11 18:22:00,70.0,55.0,-100.00,NW,323,5.0,17.0,58,0.00,,,0.01,232.000000,,2013-09-11 23:22:00,
2013-09-11 18:34:00,70.0,55.0,-100.00,NW,323,5.0,17.0,58,0.00,,,0.01,232.000000,,2013-09-11 23:34:00,
2013-09-11 18:42:00,70.0,55.0,-100.00,NW,323,5.0,17.0,58,0.00,,,0.01,232.000000,,2013-09-11 23:42:00,
2013-09-11 18:53:00,70.0,55.0,-100.00,NW,323,5.0,17.0,58,0.00,,,0.01,232.000000,,2013-09-11 23:53:00,
2013-09-11 19:01:00,70.0,55.0,-100.00,NW,323,5.0,17.0,58,0.00,,,0.01,232.000000,,2013-09-12 00:01:00,
2013-09-11 19:22:00,65.0,52.0,-100.00,WNW,296,3.0,11.0,63,0.00,,,0.01,59.000000,,2013-09-12 00:22:00,
2013-09-11 19:32:00,65.0,52.0,-100.00,WNW,296,3.0,11.0,63,0.00,,,0.01,59.000000,,2013-09-12 00:32:00,
2013-09-11 19:42:00,65.0,52.0,-100.00,WNW,296,3.0,11.0,63,0.00,,,0.01,59.000000,,2013-09-12 00:42:00,
2013-09-11 19:52:00,65.0,52.0,-100.00,WNW,296,3.0,11.0,63,0.00,,,0.01,59.000000,,2013-09-12 00:52:00,
2013-09-11 20:01:00,65.0,52.0,-100.00,WNW,296,3.0,11.0,63,0.00,,,0.01,59.000000,,2013-09-12 01:01:00,
2013-09-11 20:02:00,60.0,51.0,-100.00,West,275,3.0,8.0,73,0.00,,,-99.99,3.000000,,2013-09-12 01:02:00,
2013-09-11 20:23:00,60.0,51.0,-100.00,West,275,3.0,8.0,73,0.00,,,-99.99,3.000000,,2013-09-12 01:23:00,
2013-09-11 20:32:00,60.0,51.0,-100.00,West,275,3.0,8.0,73,0.00,,,-99.99,3.000000,,2013-09-12 01:32:00,
2013-09-11 20:42:00,60.0,51.0,-100.00,West,275,3.0,8.0,73,0.00,,,-99.99,3.000000,,2013-09-12 01:42:00,
2013-09-11 20:52:00,60.0,51.0,-100.00,West,275,3.0,8.0,73,0.00,,,-99.99,3.000000,,2013-09-12 01:52:00,
2013-09-11 21:02:00,56.0,52.0,-100.00,WSW,237,2.0,4.0,88,0.00,,,0.01,0.000000,,2013-09-12 02:02:00,
2013-09-11 21:52:00,56.0,52.0,-100.00,WSW,237,2.0,4.0,88,0.00,,,0.01,0.000000,,2013-09-12 02:52:00,
2013-09-11 22:02:00,55.0,52.0,-100.00,West,260,2.0,4.0,89,0.00,,,0.01,0.000000,,2013-09-12 03:02:00,
2013-09-11 22:45:00,55.0,52.0,-100.00,West,260,2.0,4.0,89,0.00,,,0.01,0.000000,,2013-09-12 03:45:00,
2013-09-11 22:55:00,55.0,52.0,-100.00,West,260,2.0,4.0,89,0.00,,,0.01,0.000000,,2013-09-12 03:55:00,
2013-09-11 23:02:00,55.0,52.0,-100.00,NNW,333,1.0,5.0,91,0.00,,,0.01,0.000000,,2013-09-12 04:02:00,
2013-09-11 23:24:00,55.0,52.0,-100.00,NNW,333,1.0,5.0,91,0.00,,,0.01,0.000000,,2013-09-12 04:24:00,
2013-09-11 23:34:00,55.0,52.0,-100.00,NNW,333,1.0,5.0,91,0.00,,,0.01,0.000000,,2013-09-12 04:34:00,
2013-09-11 23:44:00,55.0,52.0,-100.00,NNW,333,1.0,5.0,91,0.00,,,0.01,0.000000,,2013-09-12 04:44:00,
2013-09-11 23:54:00,55.0,52.0,-100.00,NNW,333,1.0,5.0,91,0.00,,,0.01,0.000000,,2013-09-12 04:54:00,